sat.trackr.live / text

‹ back to catalog

STARLINK-32429

NORAD 61682 · 2024-193X

PAYLOAD ACTIVE UNKNOWN

§ Identity

Operator
Country
US
Launch date
2024-10-26
Launch site
AFETR
Launch vehicle
Mass (kg)
RCS (m²)

Purposes: comms

External: N2YO · Heavens-Above · Gunter

§ Orbital elements

Epoch: 2026-09-20T23:41:59.276832Z

Period
94.01 min
Inclination
53.1573°
Eccentricity
0.0001635
Mean motion
15.31722161 rev/d
Perigee alt
469.6 km
Apogee alt
471.8 km
Semi-major
6,848.8 km
B*
1.0762e-4
RAAN
262.7223°
Arg perigee
78.7928°
Mean anomaly
281.3257°
Rev number
10,644

§ Raw data

STARLINK-324291 61682U 24193X   26263.98749163  .00002978  00000+0  10762-3 0  99922 61682  53.1573 262.7223 0001635  78.7928 281.3257 15.31722161106441

JSON: /api/v1/satellites/61682 · /tle

For live sub-satellite position, see the globe view (requires WebGL).

§ Visibility from observer

Set your observer location to see the next 7 days of passes ≥ 10°. The values pass through the URL so the page stays shareable.

No JS? Fill the form by hand. The geolocation button needs JavaScript.